[[{"header":{"parameterUnit":"m.s-1","parameterCategory":1,"la1":30.2991,"la2":30.254,"lo1":-89.0895,"lo2":-89.0444,"dy":0.0017,"dx":0.0017,"nx":28,"ny":28,"refTime":"2024-12-02T03:00:00:Z","depth":0,"parameterNumber":2,"parameterNumberName":"U-component_of_WINDS"},"data":[0,0,0,0,0,0,0,0,0,0,0,0,0,0,0,0,0,0,0,0,0,0,0,0,0,0,0,0,0,0,0,0,0,0,0,0,0,0,0,0,0,0,0,0,0,0,0,0,0,0,0,0,0,0,0,0,0,0,0.6853,0.6853,0,0.6853,0.6853,0.6853,0.6877,0.6877,0.6878,0.6878,0.6878,0.6877,0.6877,0,0,0,0,0,0,0,0,0,0,0,0,0,0.6871,0.6871,0.6853,0.6853,0.6853,0.6853,0.6853,0.6853,0.6877,0.6877,0.6878,0.6879,0.6878,0.6877,0.6877,0,0,0,0,0,0,0,0,0,0,0,0,0,0.6866,0.687,0.6853,0.6864,0.6865,0.6853,0.6853,0.6853,0.6876,0.6877,0.6878,0.6879,0.6878,0.6878,0.6877,0.6853,0,0,0.6874,0.6874,0,0,0,0,0,0,0,0,0.6867,0.6866,0.6863,0.6864,0.6865,0.6866,0.686,0.6853,0.6876,0.6872,0.6878,0.688,0.6873,0.6873,0.6871,0.6853,0.6853,0.6874,0.6873,0.6873,0.6873,0,0,0,0,0,0,0,0.6867,0.6866,0.6853,0.6863,0.6864,0.6869,0.687,0.6859,0.6868,0.6873,0.6874,0.6874,0.6874,0.6872,0.6871,0.6853,0.6874,0.6873,0.6873,0.6872,0.6816,0.6815,0,0,0,0,0,0,0.6866,0.6866,0.6853,0.6853,0.6868,0.6868,0.6869,0.6865,0.6868,0.6869,0.6873,0.6875,0.6873,0.6872,0.6871,0.6843,0.6873,0.6872,0.6872,0.6817,0.6815,0.6814,0,0,0,0,0,0,0.6866,0.6864,0.6853,0.686,0.6859,0.6867,0.6862,0.6864,0.6862,0.6868,0.687,0.6869,0.6873,0.6872,0.6857,0.6843,0.6872,0.6871,0.6818,0.6816,0.6815,0.6787,0,0,0,0,0,0,0.6866,0.6864,0.6856,0.686,0.6858,0.6839,0.6861,0.6863,0.686,0.6863,0.6865,0.6866,0.6874,0.6859,0.6857,0.6843,0.687,0.6819,0.6817,0.6815,0.6789,0.6785,0.6781,0,0,0,0,0,0.6867,0.6848,0.6855,0.6853,0.6848,0.6839,0.6838,0.6847,0.6859,0.685,0.6855,0.6866,0.6846,0.6857,0.6855,0.684,0.682,0.6818,0.6816,0.6791,0.6786,0.6781,0,0,0,0,0,0,0.6841,0.6848,0.6857,0.6838,0.6837,0.6842,0.6831,0.6841,0.6837,0.684,0.6852,0.6852,0.6835,0.6837,0.6849,0.6818,0.6835,0.6832,0.6817,0.6812,0.6808,0.6807,0.687,0,0,0,0,0,0.6834,0.6826,0.6832,0.6815,0.6815,0.6823,0.6819,0.6827,0.6827,0.6827,0.683,0.6829,0.6822,0.6817,0.6812,0.679,0.6791,0.678,0.6775,0.6772,0.6769,0.6757,0.6752,0.6807,0.6807,0.6807,0,0,0.6817,0.682,0.6814,0.681,0.6811,0.6802,0.6823,0.6813,0.6806,0.6825,0.6811,0.6813,0.6813,0.6795,0.6787,0.6795,0.6754,0.6769,0.6766,0.6765,0.6754,0.6749,0.6745,0.6806,0.6806,0.6806,0,0,0.6783,0.6784,0.677,0.677,0.6771,0.6777,0.6774,0.6777,0.6779,0.6766,0.678,0.6772,0.6761,0.676,0.6758,0.6724,0.6734,0.6722,0.67,0.6688,0.6684,0.668,0.6667,0.6662,0.6719,0.6719,0.6719,0,0.6762,0.675,0.6761,0.675,0.6748,0.6765,0.6751,0.675,0.6749,0.6747,0.6757,0.6742,0.6744,0.6725,0.6717,0.6715,0.6711,0.6721,0.6683,0.668,0.6676,0.6664,0.6659,0.6717,0.6717,0.6718,0.6718,0,0.6724,0.6715,0.6704,0.6702,0.6698,0.6686,0.6695,0.669,0.6698,0.6703,0.6689,0.6691,0.6686,0.6682,0.669,0.6664,0.667,0.6681,0.6699,0.6669,0.6658,0.6653,0.6715,0.6716,0.6716,0.6716,0,0,0.6672,0.6678,0.6673,0.6672,0.6675,0.6668,0.6656,0.6652,0.6647,0.6646,0.6635,0.6625,0.6636,0.6634,0.6642,0.6632,0.6604,0.6645,0.6645,0.6636,0.6575,0.6565,0.6559,0.6611,0.661,0.661,0.6574,0,0.6638,0.6618,0.6628,0.6606,0.6598,0.6615,0.6605,0.6605,0.6609,0.6603,0.6607,0.66,0.6615,0.6614,0.6605,0.6609,0.6591,0.6612,0.6601,0.66,0.6599,0.6554,0.6543,0.651,0.657,0.6569,0.6569,0,0.6595,0.6592,0.6569,0.6573,0.657,0.6561,0.6557,0.6551,0.6552,0.6556,0.6553,0.6564,0.6552,0.657,0.6553,0.6567,0.6564,0.6565,0.6564,0.6562,0.6582,0.6549,0.6499,0.6494,0.6562,0.6563,0.6563,0,0.6558,0.6548,0.6534,0.6533,0.6537,0.653,0.6532,0.6533,0.653,0.6527,0.6525,0.652,0.6517,0.6514,0.6522,0.6535,0.6504,0.6523,0.6506,0.6506,0.6498,0.6498,0.6445,0.6498,0.6498,0.6498,0.6498,0,0.6518,0.6503,0.6517,0.6508,0.6492,0.6504,0.6488,0.6492,0.6493,0.6484,0.6499,0.6491,0.6503,0.6496,0.6503,0.6488,0.6487,0.6489,0.6491,0.6487,0.6486,0.6483,0.6485,0.6497,0.6497,0.6497,0.6497,0,0.6473,0.6482,0.6467,0.6473,0.6474,0.6462,0.6466,0.6458,0.6464,0.6453,0.6451,0.646,0.6452,0.6461,0.6454,0.6458,0.6437,0.6443,0.6437,0.6438,0.642,0.6421,0.6363,0.6355,0.6414,0.6413,0.6413,0,0.6446,0.6435,0.644,0.6435,0.6436,0.6429,0.6425,0.6438,0.6433,0.6433,0.6425,0.6418,0.6414,0.6401,0.6406,0.64,0.6405,0.6385,0.6405,0.6401,0.6404,0.6404,0.6402,0.6381,0.638,0.638,0.6379,0,0.6397,0.6402,0.6397,0.6393,0.6389,0.6386,0.6385,0.6381,0.6393,0.6388,0.638,0.6377,0.637,0.6363,0.6359,0.636,0.6371,0.6373,0.6369,0.6364,0.6361,0.6361,0.6425,0.6374,0.6375,0.6375,0.6375,0.6376,0.636,0.6351,0.6353,0.6346,0.6347,0.6345,0.6337,0.6342,0.6336,0.6332,0.6339,0.633,0.6331,0.6327,0.6327,0.6319,0.6327,0.6321,0.6319,0.6317,0.6314,0.6363,0.6319,0.6319,0.6319,0.6319,0.6319,0,0.631,0.6313,0.6307,0.6305,0.63,0.6312,0.6311,0.6306,0.6297,0.6297,0.6293,0.6284,0.6277,0.6282,0.6277,0.627,0.6275,0.6268,0.6268,0.6268,0.6308,0.6311,0.6264,0.6264,0.6264,0.6264,0.6264,0.6264,0.6284,0.6269,0.6275,0.626,0.6263,0.6253,0.6252,0.625,0.6251,0.624,0.6235,0.6239,0.6241,0.6236,0.623,0.6232,0.6228,0.6219,0.6223,0.6259,0.6265,0.627,0.6274,0.6219,0.6219,0.6183,0.6183,0.6183]},{"header":{"parameterUnit":"m.s-1","parameterCategory":1,"la1":30.2991,"la2":30.254,"lo1":-89.0895,"lo2":-89.0444,"dy":0.0017,"dx":0.0017,"nx":28,"ny":28,"refTime":"2024-12-02T03:00:00:Z","depth":0,"parameterNumber":3,"parameterNumberName":"V-component_of_WINDS"},"data":[0,0,0,0,0,0,0,0,0,0,0,0,0,0,0,0,0,0,0,0,0,0,0,0,0,0,0,0,0,0,0,0,0,0,0,0,0,0,0,0,0,0,0,0,0,0,0,0,0,0,0,0,0,0,0,0,0,0,-0.7661,-0.7662,0,-0.7707,-0.7708,-0.7708,-0.7727,-0.7727,-0.7727,-0.7727,-0.7773,-0.7774,-0.7776,0,0,0,0,0,0,0,0,0,0,0,0,0,-0.7591,-0.7592,-0.7661,-0.7662,-0.7662,-0.7707,-0.7708,-0.7708,-0.7727,-0.7727,-0.7727,-0.7727,-0.7773,-0.7774,-0.7776,0,0,0,0,0,0,0,0,0,0,0,0,0,-0.7627,-0.7592,-0.7661,-0.7677,-0.7679,-0.7707,-0.7708,-0.7708,-0.7727,-0.7727,-0.7727,-0.7727,-0.7772,-0.7774,-0.7776,-0.7791,0,0,-0.7782,-0.7783,0,0,0,0,0,0,0,0,-0.7625,-0.763,-0.7674,-0.7676,-0.7678,-0.7711,-0.77,-0.7736,-0.7727,-0.7709,-0.7727,-0.7727,-0.7753,-0.7756,-0.7765,-0.7793,-0.7795,-0.7782,-0.7783,-0.7784,-0.7785,0,0,0,0,0,0,0,-0.7623,-0.7628,-0.7679,-0.7675,-0.7677,-0.7682,-0.7687,-0.7707,-0.7731,-0.7711,-0.7712,-0.7717,-0.7754,-0.7763,-0.7766,-0.7796,-0.7782,-0.7784,-0.7785,-0.7786,-0.784,-0.7841,0,0,0,0,0,0,-0.7617,-0.7626,-0.7678,-0.7681,-0.7651,-0.7684,-0.7689,-0.7701,-0.7731,-0.7735,-0.7717,-0.7718,-0.776,-0.7764,-0.7768,-0.7789,-0.7784,-0.7786,-0.7787,-0.784,-0.784,-0.7841,0,0,0,0,0,0,-0.7616,-0.7622,-0.7676,-0.7654,-0.7661,-0.7685,-0.7698,-0.7702,-0.7711,-0.7736,-0.774,-0.7723,-0.776,-0.7765,-0.7786,-0.7791,-0.7787,-0.7789,-0.784,-0.784,-0.7841,-0.783,0,0,0,0,0,0,-0.7614,-0.7621,-0.7627,-0.7654,-0.7662,-0.7693,-0.7698,-0.7703,-0.7715,-0.7716,-0.7742,-0.7746,-0.776,-0.7783,-0.7788,-0.7793,-0.779,-0.7839,-0.784,-0.784,-0.783,-0.783,-0.783,0,0,0,0,0,-0.7611,-0.7621,-0.7627,-0.7633,-0.767,-0.7693,-0.7698,-0.7714,-0.7715,-0.7721,-0.7737,-0.7745,-0.7789,-0.7784,-0.779,-0.7797,-0.7839,-0.784,-0.784,-0.783,-0.783,-0.783,0,0,0,0,0,0,-0.7594,-0.7625,-0.7632,-0.7651,-0.7669,-0.7696,-0.7704,-0.7713,-0.7731,-0.7732,-0.7751,-0.7756,-0.7776,-0.7788,-0.7782,-0.7814,-0.7815,-0.7817,-0.7805,-0.7805,-0.7805,-0.7802,-0.7792,0,0,0,0,0,-0.7592,-0.7609,-0.7635,-0.7649,-0.7658,-0.768,-0.769,-0.7702,-0.7721,-0.7729,-0.7746,-0.7765,-0.7783,-0.7795,-0.7813,-0.7832,-0.7838,-0.7839,-0.7839,-0.7839,-0.784,-0.7853,-0.7854,-0.7843,-0.7843,-0.7843,0,0,-0.7589,-0.7608,-0.7617,-0.7646,-0.7662,-0.7679,-0.7686,-0.7703,-0.7716,-0.7731,-0.7752,-0.7766,-0.7788,-0.7808,-0.7818,-0.7819,-0.7845,-0.784,-0.7839,-0.7841,-0.7854,-0.7855,-0.7856,-0.7843,-0.7843,-0.7843,0,0,-0.7592,-0.7608,-0.7623,-0.7638,-0.7662,-0.7677,-0.768,-0.7706,-0.7716,-0.7737,-0.775,-0.7765,-0.7796,-0.7812,-0.7824,-0.7835,-0.7843,-0.784,-0.784,-0.7852,-0.7853,-0.7854,-0.786,-0.7861,-0.7841,-0.7841,-0.7841,0,-0.7585,-0.7611,-0.7629,-0.7646,-0.7659,-0.7674,-0.769,-0.7704,-0.7732,-0.7741,-0.7742,-0.7782,-0.7798,-0.7823,-0.7826,-0.7835,-0.784,-0.7837,-0.7852,-0.7853,-0.7854,-0.7859,-0.7861,-0.7841,-0.7841,-0.7841,-0.7841,0,-0.7602,-0.762,-0.7629,-0.7657,-0.7671,-0.7687,-0.7708,-0.772,-0.773,-0.7745,-0.7767,-0.7787,-0.781,-0.7817,-0.7826,-0.7844,-0.7844,-0.7848,-0.785,-0.7854,-0.786,-0.7862,-0.784,-0.784,-0.784,-0.7841,0,0,-0.7595,-0.7634,-0.7637,-0.7651,-0.7679,-0.7693,-0.7711,-0.7734,-0.7745,-0.7764,-0.7779,-0.7806,-0.781,-0.7824,-0.7836,-0.7846,-0.7856,-0.7849,-0.785,-0.7851,-0.7878,-0.7876,-0.7878,-0.7861,-0.7862,-0.7862,-0.7877,0,-0.7603,-0.7635,-0.7652,-0.7677,-0.7695,-0.7711,-0.7726,-0.7745,-0.776,-0.7777,-0.7792,-0.7812,-0.7815,-0.7824,-0.7835,-0.7852,-0.7862,-0.7851,-0.7877,-0.7878,-0.7872,-0.788,-0.7877,-0.789,-0.7879,-0.7879,-0.7879,0,-0.7616,-0.7636,-0.7664,-0.7692,-0.77,-0.7713,-0.7737,-0.7753,-0.7776,-0.7785,-0.7802,-0.7813,-0.7833,-0.7833,-0.7861,-0.7854,-0.7865,-0.7875,-0.7876,-0.788,-0.7879,-0.7885,-0.7894,-0.7896,-0.7883,-0.7882,-0.7882,0,-0.761,-0.7644,-0.7665,-0.7676,-0.7709,-0.7718,-0.7732,-0.7755,-0.7768,-0.7789,-0.7798,-0.782,-0.7833,-0.785,-0.7868,-0.7866,-0.7895,-0.7896,-0.7904,-0.7904,-0.791,-0.7909,-0.7922,-0.7915,-0.7915,-0.7915,-0.7915,0,-0.7617,-0.7634,-0.7663,-0.7676,-0.7695,-0.7715,-0.7734,-0.7749,-0.7769,-0.7786,-0.78,-0.7816,-0.7838,-0.7856,-0.787,-0.7892,-0.7897,-0.7906,-0.791,-0.7906,-0.7905,-0.7914,-0.7914,-0.7916,-0.7916,-0.7916,-0.7916,0,-0.7613,-0.7634,-0.7658,-0.7688,-0.7696,-0.7709,-0.7734,-0.7748,-0.7764,-0.7785,-0.7791,-0.7815,-0.7838,-0.7857,-0.7886,-0.7896,-0.7919,-0.7923,-0.7912,-0.7914,-0.7922,-0.7921,-0.7942,-0.7946,-0.7935,-0.7935,-0.7935,0,-0.7617,-0.7631,-0.7662,-0.7675,-0.7689,-0.7709,-0.7724,-0.7744,-0.7758,-0.7786,-0.7797,-0.782,-0.7841,-0.7876,-0.7896,-0.7919,-0.7925,-0.793,-0.7928,-0.7924,-0.7926,-0.7926,-0.7928,-0.793,-0.793,-0.793,-0.793,0,-0.7623,-0.7632,-0.7653,-0.7678,-0.7695,-0.7715,-0.7735,-0.7745,-0.7769,-0.7784,-0.7808,-0.7824,-0.7855,-0.7879,-0.7905,-0.7919,-0.7929,-0.7931,-0.7935,-0.7931,-0.7924,-0.7929,-0.7913,-0.7931,-0.7931,-0.7931,-0.7931,-0.7931,-0.7624,-0.7637,-0.7662,-0.7685,-0.7703,-0.7722,-0.7737,-0.7755,-0.7776,-0.7803,-0.7814,-0.7838,-0.7862,-0.7898,-0.7913,-0.7932,-0.7934,-0.7938,-0.794,-0.7941,-0.7941,-0.792,-0.7937,-0.7937,-0.7937,-0.7937,-0.7937,0,-0.7631,-0.7648,-0.7669,-0.7698,-0.7716,-0.7725,-0.7749,-0.7763,-0.7785,-0.7807,-0.7827,-0.7855,-0.7879,-0.7902,-0.7927,-0.7938,-0.7944,-0.7944,-0.7944,-0.7948,-0.7937,-0.7933,-0.794,-0.794,-0.794,-0.794,-0.794,-0.794,-0.7637,-0.766,-0.7673,-0.7707,-0.7724,-0.7749,-0.7762,-0.778,-0.7798,-0.7829,-0.7849,-0.7864,-0.7887,-0.7914,-0.7936,-0.7942,-0.7951,-0.7951,-0.7958,-0.7949,-0.7948,-0.7948,-0.7943,-0.7952,-0.7952,-0.7967,-0.7967,-0.7967]}]]